Flag for U.S.A. Weather past 2 weeks in Oberlin, Ohio, U.S.A.

Now
28 °F

Sunny.


Feels Like: 16 °F
Forecast: 10 / 30 °F
Wind: 16 mph from Southwest

Location: Lorain County Regional Airport

Current Time: Jan 31, 2015 at 2:22:15 PM

Latest Report: Jan 31, 2015 at 1:53 PM


Visibility: 10 mi

Pressure: 30.29 "Hg

Humidity: 66%

Dew point: 18 °F

Location of OberlinLocation

Historic Weather in Oberlin — Graph

°F

Oberlin temperature yesterday

Maximum temperature yesterday: 30 °F (at 12:53 AM)
Minimum temperature yesterday: 6 °F (at 9:53 PM)
Average temperature yesterday: 17 °F

Past Weeks' High & Low Weather Summary

 TemperatureHumidityPressure
High45 °F (Jan 17, 3:53 PM)100% (Jan 28, 10:53 AM)30.48 "Hg (Jan 28, 10:53 AM)
Low1 °F (Jan 28, 4:53 AM)49% (Jan 17, 11:53 PM)29.61 "Hg (Jan 24, 2:53 PM)
Average25 °F81%30.05 "Hg
* Reported Jan 16 12:53 PM — Jan 31 12:53 PM, Oberlin, Weather by CustomWeather, © 2014

Note: Actual official high and low records may vary slightly from our data, if they occured in-between our weather recording intervals... More about our weather records

Advertising

Oberlin weather history for previous 24 hours

 ConditionsComfort  
Time TempWeatherWind HumidityBarometerVisibility
12:53 PM
Jan 31
26 °FOvercast.15 mph69%30.31 "Hg10 mi
11:53 AM24 °FOvercast.9 mph71%30.34 "Hg10 mi
10:53 AM22 °FPartly sunny.10 mph72%30.37 "Hg10 mi
10:03 AM17 °FPartly sunny.9 mph76%30.33 "Hg10 mi
9:53 AM15 °FScattered clouds.8 mph80%30.38 "Hg9 mi
8:53 AM11 °FSunny.6 mph81%30.38 "Hg9 mi
7:53 AM8 °FPassing clouds.6 mph83%30.39 "Hg9 mi
6:53 AM8 °FPassing clouds.5 mph83%30.38 "Hg10 mi
5:53 AM7 °FOvercast.7 mph83%30.39 "Hg10 mi
4:53 AM7 °FOvercast.5 mph83%30.39 "Hg10 mi
3:53 AM5 °FClear.6 mph80%30.41 "Hg10 mi
2:53 AM5 °FClear.5 mph83%30.43 "Hg10 mi
1:53 AM6 °FClear.7 mph79%30.44 "Hg10 mi
12:53 AM7 °FPassing clouds.5 mph79%30.45 "Hg10 mi
11:53 PM
Jan 30
7 °FPassing clouds.3 mph83%30.47 "Hg10 mi
10:53 PM6 °FPassing clouds.7 mph87%30.47 "Hg10 mi
9:53 PM6 °FClear.No wind83%30.48 "Hg10 mi
8:53 PM7 °FClear.No wind83%30.48 "Hg10 mi
7:53 PM9 °FClear.No wind76%30.47 "Hg10 mi
6:53 PM12 °FClear.No wind67%30.48 "Hg10 mi
5:53 PM15 °FClear.7 mph61%30.48 "Hg10 mi
4:53 PM16 °FSunny.14 mph56%30.47 "Hg10 mi
3:53 PM17 °FPassing clouds.14 mph59%30.46 "Hg10 mi
2:53 PM17 °FPartly sunny.15 mph62%30.45 "Hg10 mi
Weather by CustomWeather, © 2014

See weather overviewHow to use our weather pages